User: anonymous   Login
Location: Catstown
(52.4386°N, 7.2633°W)
Time: 20:27:00
(UTC+00:00)
Language:

Terra - Orbit

View from above orbital plane
View from above orbital plane
View from above satellite
View from above satellite

Ground track
Ground track

The orbit data is extracted from the following two-line orbital elements,

1 25994U 99068A   20333.49965840  .00000115  00000-0  35579-4 0  9997
2 25994  98.1993  45.3773 0001148  92.0243 284.7851 14.57119264114206
Epoch (UTC): 28 November 2020 11:59:30
Eccentricity: 0.0001148
inclination: 98.1993°
perigee height: 701 km
apogee height: 703 km
right ascension of ascending node: 45.3773°
argument of perigee: 92.0243°
revolutions per day: 14.57119264
mean anomaly at epoch: 284.7851°
orbit number at epoch: 11420

The dashed part of the orbit path shows where the satellite is in the earth's shadow,  

DLR